[[{"header":{"parameterUnit":"m.s-1","parameterCategory":1,"la1":30.2991,"la2":30.254,"lo1":-89.0895,"lo2":-89.0444,"dy":0.0017,"dx":0.0017,"nx":28,"ny":28,"refTime":"2023-04-28T21:00:00:Z","depth":0,"parameterNumber":2,"parameterNumberName":"U-component_of_WINDS"},"data":[0,0,0,0,0,0,0,0,0,0,0,0,0,0,0,0,0,0,0,0,0,0,0,0,0,0,0,0,0,0,0,0,0,0,0,0,0,0,0,0,0,0,0,0,0,0,0,0,0,0,0,0,0,0,0,0,0,0,-0.2792,-0.2793,0,-0.2815,-0.2815,-0.2816,-0.2823,-0.2823,-0.2823,-0.2823,-0.2847,-0.2847,-0.2848,0,0,0,0,0,0,0,0,0,0,0,0,0,-0.2757,-0.2758,-0.2792,-0.2793,-0.2793,-0.2815,-0.2815,-0.2816,-0.2823,-0.2823,-0.2823,-0.2823,-0.2847,-0.2847,-0.2848,0,0,0,0,0,0,0,0,0,0,0,0,0,-0.2775,-0.2758,-0.2792,-0.2799,-0.28,-0.2815,-0.2815,-0.2816,-0.2823,-0.2823,-0.2823,-0.2823,-0.2846,-0.2847,-0.2848,-0.2858,0,0,-0.2852,-0.2852,0,0,0,0,0,0,0,0,-0.2774,-0.2777,-0.2798,-0.2799,-0.28,-0.2816,-0.2812,-0.283,-0.2823,-0.2815,-0.2823,-0.2823,-0.2837,-0.2839,-0.2843,-0.2859,-0.286,-0.2852,-0.2852,-0.2853,-0.2853,0,0,0,0,0,0,0,-0.2773,-0.2776,-0.2801,-0.2798,-0.28,-0.2802,-0.2804,-0.2815,-0.2826,-0.2815,-0.2816,-0.2819,-0.2837,-0.2842,-0.2844,-0.286,-0.2852,-0.2853,-0.2853,-0.2854,-0.2885,-0.2886,0,0,0,0,0,0,-0.277,-0.2774,-0.2801,-0.2802,-0.2786,-0.2803,-0.2805,-0.2811,-0.2826,-0.2828,-0.2819,-0.2819,-0.284,-0.2843,-0.2845,-0.2857,-0.2853,-0.2854,-0.2854,-0.2885,-0.2886,-0.2886,0,0,0,0,0,0,-0.277,-0.2773,-0.28,-0.2788,-0.2792,-0.2803,-0.281,-0.2812,-0.2817,-0.2829,-0.2831,-0.2822,-0.284,-0.2843,-0.2855,-0.2858,-0.2854,-0.2855,-0.2885,-0.2885,-0.2886,-0.2881,0,0,0,0,0,0,-0.2768,-0.2772,-0.2775,-0.2788,-0.2793,-0.2809,-0.281,-0.2812,-0.2818,-0.2819,-0.2832,-0.2834,-0.284,-0.2853,-0.2856,-0.2859,-0.2856,-0.2885,-0.2885,-0.2886,-0.2881,-0.2882,-0.2882,0,0,0,0,0,-0.2767,-0.2773,-0.2776,-0.2779,-0.2797,-0.2809,-0.2811,-0.2819,-0.2819,-0.2822,-0.283,-0.2833,-0.2857,-0.2854,-0.2857,-0.2861,-0.2885,-0.2885,-0.2886,-0.2881,-0.2882,-0.2882,0,0,0,0,0,0,-0.276,-0.2775,-0.2778,-0.2788,-0.2797,-0.281,-0.2815,-0.2819,-0.2828,-0.2828,-0.2837,-0.284,-0.2851,-0.2857,-0.2853,-0.2871,-0.2871,-0.2872,-0.2867,-0.2867,-0.2867,-0.2866,-0.2857,0,0,0,0,0,-0.276,-0.2768,-0.2781,-0.2789,-0.2793,-0.2803,-0.2809,-0.2814,-0.2824,-0.2828,-0.2836,-0.2846,-0.2856,-0.2862,-0.2871,-0.2882,-0.2886,-0.2887,-0.2887,-0.2887,-0.2888,-0.2895,-0.2896,-0.2887,-0.2887,-0.2887,0,0,-0.276,-0.2769,-0.2773,-0.2788,-0.2796,-0.2804,-0.2807,-0.2816,-0.2822,-0.2829,-0.284,-0.2847,-0.2859,-0.287,-0.2876,-0.2876,-0.2891,-0.2888,-0.2888,-0.2889,-0.2896,-0.2896,-0.2897,-0.2888,-0.2888,-0.2887,0,0,-0.2763,-0.2771,-0.2779,-0.2786,-0.2798,-0.2805,-0.2807,-0.2819,-0.2824,-0.2836,-0.2841,-0.2849,-0.2866,-0.2874,-0.288,-0.2888,-0.2892,-0.2891,-0.2892,-0.2899,-0.2899,-0.29,-0.2903,-0.2904,-0.2892,-0.2892,-0.2892,0,-0.2761,-0.2774,-0.2782,-0.2791,-0.2798,-0.2804,-0.2813,-0.282,-0.2834,-0.2839,-0.2839,-0.286,-0.2868,-0.2882,-0.2884,-0.2888,-0.2891,-0.2889,-0.2899,-0.2899,-0.29,-0.2903,-0.2904,-0.2891,-0.2892,-0.2892,-0.2892,0,-0.2772,-0.2781,-0.2786,-0.2799,-0.2806,-0.2815,-0.2825,-0.2831,-0.2836,-0.2843,-0.2855,-0.2865,-0.2877,-0.2881,-0.2885,-0.2895,-0.2895,-0.2897,-0.2897,-0.2901,-0.2904,-0.2905,-0.2891,-0.2891,-0.2891,-0.2891,0,0,-0.2771,-0.2789,-0.2791,-0.2798,-0.2811,-0.2819,-0.2828,-0.284,-0.2845,-0.2855,-0.2863,-0.2878,-0.288,-0.2887,-0.2892,-0.2898,-0.2904,-0.2899,-0.29,-0.29,-0.2917,-0.2916,-0.2917,-0.2907,-0.2907,-0.2907,-0.2916,0,-0.2777,-0.2793,-0.2801,-0.2814,-0.2823,-0.283,-0.2838,-0.2848,-0.2855,-0.2864,-0.2872,-0.2882,-0.2883,-0.2887,-0.2894,-0.2902,-0.2908,-0.2902,-0.2915,-0.2916,-0.2912,-0.2918,-0.2917,-0.2924,-0.2917,-0.2917,-0.2918,0,-0.2785,-0.2795,-0.2809,-0.2822,-0.2826,-0.2834,-0.2845,-0.2854,-0.2865,-0.287,-0.2878,-0.2884,-0.2894,-0.2894,-0.2909,-0.2905,-0.2911,-0.2916,-0.2916,-0.2918,-0.2917,-0.292,-0.2927,-0.2928,-0.292,-0.2919,-0.2919,0,-0.2784,-0.2801,-0.2811,-0.2817,-0.2832,-0.2837,-0.2844,-0.2855,-0.2862,-0.2873,-0.2877,-0.2889,-0.2896,-0.2905,-0.2914,-0.2912,-0.2928,-0.2928,-0.2933,-0.2932,-0.2935,-0.2935,-0.2943,-0.2939,-0.2939,-0.2939,-0.2939,0,-0.2789,-0.2797,-0.2811,-0.2817,-0.2827,-0.2837,-0.2846,-0.2854,-0.2864,-0.2873,-0.2879,-0.2887,-0.2899,-0.2908,-0.2915,-0.2927,-0.293,-0.2934,-0.2936,-0.2934,-0.2933,-0.2938,-0.2937,-0.294,-0.2939,-0.2939,-0.2939,0,-0.2789,-0.2798,-0.281,-0.2824,-0.2828,-0.2835,-0.2847,-0.2854,-0.2862,-0.2873,-0.2876,-0.2888,-0.29,-0.291,-0.2925,-0.293,-0.2942,-0.2944,-0.2938,-0.2939,-0.2943,-0.2943,-0.2955,-0.2957,-0.2951,-0.2951,-0.2952,0,-0.2792,-0.2798,-0.2813,-0.2819,-0.2826,-0.2836,-0.2843,-0.2853,-0.286,-0.2874,-0.288,-0.2892,-0.2902,-0.2921,-0.2931,-0.2943,-0.2946,-0.2949,-0.2948,-0.2945,-0.2946,-0.2946,-0.2947,-0.2949,-0.2949,-0.2949,-0.2949,0,-0.2796,-0.28,-0.281,-0.2822,-0.283,-0.284,-0.285,-0.2855,-0.2866,-0.2874,-0.2886,-0.2894,-0.291,-0.2923,-0.2936,-0.2944,-0.2949,-0.295,-0.2951,-0.2949,-0.2945,-0.2948,-0.2939,-0.2949,-0.2949,-0.2949,-0.2949,-0.2949,-0.2797,-0.2804,-0.2815,-0.2826,-0.2835,-0.2844,-0.2852,-0.2861,-0.2871,-0.2884,-0.289,-0.2902,-0.2914,-0.2933,-0.2941,-0.2951,-0.2952,-0.2954,-0.2955,-0.2955,-0.2955,-0.2944,-0.2953,-0.2953,-0.2953,-0.2953,-0.2953,0,-0.2802,-0.281,-0.282,-0.2834,-0.2843,-0.2846,-0.2858,-0.2865,-0.2876,-0.2887,-0.2897,-0.2911,-0.2924,-0.2935,-0.2948,-0.2954,-0.2957,-0.2957,-0.2957,-0.2959,-0.2953,-0.2951,-0.2955,-0.2955,-0.2955,-0.2955,-0.2955,-0.2955,-0.2805,-0.2817,-0.2823,-0.2839,-0.2847,-0.2859,-0.2865,-0.2874,-0.2883,-0.2899,-0.2909,-0.2916,-0.2928,-0.2942,-0.2953,-0.2957,-0.2961,-0.2961,-0.2965,-0.2959,-0.2959,-0.2959,-0.2956,-0.2962,-0.2962,-0.2969,-0.2969,-0.297]},{"header":{"parameterUnit":"m.s-1","parameterCategory":1,"la1":30.2991,"la2":30.254,"lo1":-89.0895,"lo2":-89.0444,"dy":0.0017,"dx":0.0017,"nx":28,"ny":28,"refTime":"2023-04-28T21:00:00:Z","depth":0,"parameterNumber":3,"parameterNumberName":"V-component_of_WINDS"},"data":[0,0,0,0,0,0,0,0,0,0,0,0,0,0,0,0,0,0,0,0,0,0,0,0,0,0,0,0,0,0,0,0,0,0,0,0,0,0,0,0,0,0,0,0,0,0,0,0,0,0,0,0,0,0,0,0,0,0,0.697,0.6969,0,0.6939,0.6939,0.6939,0.6845,0.6843,0.6841,0.6839,0.681,0.6811,0.6813,0,0,0,0,0,0,0,0,0,0,0,0,0,0.6949,0.695,0.697,0.6969,0.6969,0.6939,0.6939,0.6939,0.6845,0.6843,0.684,0.6838,0.681,0.6811,0.6813,0,0,0,0,0,0,0,0,0,0,0,0,0,0.6942,0.695,0.697,0.6919,0.6914,0.6939,0.6939,0.6938,0.6846,0.6843,0.684,0.6837,0.6809,0.6811,0.6813,0.6886,0,0,0.6818,0.6819,0,0,0,0,0,0,0,0,0.6943,0.6943,0.6927,0.6922,0.6917,0.6893,0.6921,0.6921,0.6847,0.6872,0.6839,0.6835,0.684,0.6839,0.6841,0.6885,0.6883,0.6818,0.6819,0.682,0.6821,0,0,0,0,0,0,0,0.6943,0.6944,0.6958,0.6927,0.6921,0.6898,0.6894,0.6921,0.6874,0.6869,0.6862,0.686,0.6837,0.6839,0.6839,0.6883,0.6818,0.682,0.6821,0.6822,0.6987,0.699,0,0,0,0,0,0,0.6951,0.6945,0.6959,0.6957,0.6922,0.6901,0.6896,0.6904,0.6873,0.6866,0.6863,0.6856,0.6838,0.6837,0.6838,0.6923,0.682,0.6822,0.6823,0.6983,0.6987,0.6991,0,0,0,0,0,0,0.6951,0.6953,0.696,0.6949,0.6948,0.6905,0.6914,0.6905,0.6907,0.6868,0.686,0.6873,0.6835,0.6835,0.6875,0.692,0.6823,0.6824,0.6979,0.6984,0.6989,0.7092,0,0,0,0,0,0,0.695,0.6953,0.698,0.695,0.6949,0.6997,0.6917,0.6906,0.691,0.69,0.6876,0.6869,0.6833,0.6873,0.6877,0.6921,0.6826,0.6975,0.6982,0.6987,0.7085,0.71,0.7114,0,0,0,0,0,0.695,0.7011,0.6982,0.6984,0.6982,0.7,0.6999,0.6956,0.6914,0.6941,0.6916,0.687,0.6914,0.6877,0.6881,0.6927,0.6972,0.698,0.6987,0.7078,0.7097,0.7113,0,0,0,0,0,0,0.7049,0.7006,0.6974,0.7027,0.7018,0.6984,0.7017,0.6977,0.698,0.6971,0.6918,0.6913,0.696,0.6947,0.6907,0.6996,0.6935,0.6944,0.7004,0.7021,0.7036,0.7039,0.6827,0,0,0,0,0,0.7076,0.7094,0.7056,0.7106,0.7103,0.7061,0.7067,0.7034,0.7023,0.7019,0.6997,0.6989,0.7001,0.701,0.7019,0.7082,0.7076,0.7115,0.7129,0.7141,0.715,0.7184,0.7201,0.7015,0.7015,0.7015,0,0,0.7134,0.7113,0.7128,0.7126,0.7115,0.7135,0.7059,0.7083,0.7098,0.7023,0.7059,0.7043,0.703,0.7082,0.7103,0.7072,0.72,0.7151,0.7161,0.7163,0.7193,0.7211,0.7226,0.702,0.702,0.7019,0,0,0.7251,0.7236,0.7277,0.7267,0.7251,0.7222,0.7232,0.7205,0.7191,0.7226,0.717,0.7187,0.7209,0.7202,0.7201,0.7315,0.7273,0.7319,0.7395,0.7428,0.7443,0.7456,0.7498,0.7514,0.7327,0.7327,0.7328,0,0.7325,0.7353,0.7303,0.7331,0.7333,0.7264,0.7306,0.7299,0.7287,0.729,0.7254,0.728,0.7266,0.7317,0.7344,0.7345,0.7356,0.7322,0.7445,0.7457,0.7468,0.7508,0.7524,0.7333,0.7333,0.7332,0.7331,0,0.7446,0.7466,0.7501,0.7491,0.7495,0.753,0.7487,0.7497,0.7464,0.7439,0.7477,0.7457,0.7462,0.747,0.7438,0.7516,0.7497,0.7454,0.7392,0.7493,0.7529,0.7544,0.7342,0.734,0.7338,0.7336,0,0,0.7626,0.7586,0.76,0.7595,0.7572,0.7587,0.7619,0.7622,0.7633,0.7627,0.7654,0.7673,0.7633,0.7632,0.7598,0.7627,0.772,0.758,0.7579,0.7609,0.7807,0.7842,0.786,0.7691,0.7694,0.7696,0.7809,0,0.7737,0.7789,0.7745,0.7806,0.7824,0.7759,0.7787,0.7776,0.7754,0.7767,0.7742,0.7758,0.7703,0.7702,0.7728,0.7704,0.776,0.7695,0.7717,0.7719,0.7725,0.7879,0.7915,0.8023,0.7823,0.7825,0.7827,0,0.7875,0.7875,0.7937,0.791,0.7916,0.7942,0.7942,0.7955,0.7942,0.7923,0.7923,0.7881,0.7911,0.7849,0.7891,0.7847,0.7854,0.7843,0.7846,0.7849,0.7781,0.7888,0.8056,0.8074,0.7849,0.7847,0.7845,0,0.8002,0.8017,0.8057,0.8054,0.8023,0.8043,0.8031,0.8014,0.802,0.8019,0.8022,0.8026,0.8029,0.8033,0.7993,0.7951,0.8041,0.7975,0.8028,0.803,0.8052,0.8052,0.8227,0.8053,0.8053,0.8052,0.8052,0,0.8133,0.8175,0.8113,0.8138,0.8183,0.8131,0.8177,0.8158,0.8144,0.8165,0.8108,0.8129,0.8074,0.809,0.8059,0.8099,0.81,0.8088,0.808,0.8094,0.8096,0.81,0.8092,0.8056,0.8056,0.8055,0.8054,0,0.8284,0.8245,0.8284,0.8251,0.8243,0.8278,0.825,0.8272,0.8245,0.8272,0.8276,0.8234,0.8249,0.821,0.8219,0.8198,0.8257,0.8236,0.8262,0.8256,0.8313,0.8309,0.8498,0.8521,0.833,0.8332,0.8334,0,0.8372,0.8402,0.8372,0.8381,0.8372,0.8388,0.8392,0.8343,0.835,0.8337,0.8361,0.8371,0.8377,0.8404,0.8376,0.8383,0.8362,0.8428,0.8363,0.8378,0.8366,0.8366,0.837,0.8442,0.8445,0.8447,0.8448,0,0.8532,0.851,0.8519,0.8521,0.8527,0.8527,0.8522,0.8533,0.8479,0.8491,0.8505,0.8509,0.8518,0.853,0.853,0.8519,0.8476,0.8468,0.8481,0.8498,0.8513,0.8508,0.8301,0.8465,0.8463,0.8462,0.8461,0.846,0.8655,0.8679,0.8662,0.8673,0.8664,0.8661,0.868,0.8655,0.8666,0.8669,0.8639,0.866,0.8646,0.8642,0.8635,0.8652,0.8622,0.8641,0.8646,0.8652,0.8663,0.8508,0.8652,0.8651,0.8651,0.865,0.865,0,0.8814,0.8799,0.881,0.8805,0.8814,0.877,0.8763,0.8774,0.8793,0.8783,0.8789,0.8807,0.8817,0.8789,0.8796,0.8815,0.8795,0.8819,0.8818,0.8817,0.8688,0.8677,0.8834,0.8834,0.8834,0.8834,0.8834,0.8834,0.8898,0.8937,0.8914,0.8948,0.8933,0.8953,0.8953,0.895,0.8942,0.8963,0.8971,0.8952,0.8936,0.894,0.8949,0.894,0.8947,0.8978,0.8963,0.8843,0.8825,0.8808,0.8798,0.8979,0.8979,0.909,0.9092,0.9092]}]]